• In Moldova, Republic
  • List of Countries
  • For 7 days
  • Water Temperature
  • Satellite Maps
  • Weather Map
  • Weather Widgets
  • user-avatar
    Login

    Hourly Weather Djelfa

    Today, 25 July, Tuesday

    Time Temperature Precipitation Wind Pressure Humidity
    00:00 +28°C° 0 mm 5 mps 668 mmHg 30%
    01:00 +28°C° 0 mm 5 mps 667 mmHg 35%
    02:00 +27°C° 0 mm 5 mps 667 mmHg 39%
    03:00 +26°C° 0 mm 5 mps 666 mmHg 44%
    04:00 +26°C° 0 mm 4 mps 666 mmHg 44%
    05:00 +25°C° 0 mm 4 mps 666 mmHg 44%
    06:00 +25°C° 0 mm 4 mps 666 mmHg 44%
    07:00 +26°C° 0 mm 3 mps 666 mmHg 37%
    08:00 +27°C° 0 mm 3 mps 667 mmHg 30%
    09:00 +29°C° 0 mm 2 mps 667 mmHg 23%
    10:00 +30°C° 0 mm 2 mps 667 mmHg 20%
    11:00 +31°C° 0 mm 2 mps 667 mmHg 17%
    12:00 +34°C° 0 mm 2 mps 667 mmHg 14%
    13:00 +35°C° 0 mm 3 mps 667 mmHg 13%
    14:00 +35°C° 0 mm 4 mps 667 mmHg 11%
    15:00 +36°C° 0 mm 5 mps 667 mmHg 10%
    16:00 +36°C° 0 mm 6 mps 666 mmHg 10%
    17:00 +36°C° 0 mm 7 mps 666 mmHg 10%
    18:00 +35°C° 0 mm 7 mps 666 mmHg 10%
    19:00 +34°C° 0 mm 6 mps 666 mmHg 12%
    20:00 +33°C° 0 mm 6 mps 666 mmHg 14%
    21:00 +32°C° 0 mm 5 mps 666 mmHg 16%
    22:00 +30°C° 0 mm 4 mps 666 mmHg 22%
    23:00 +28°C° 0 mm 4 mps 666 mmHg 28%

    Tomorrow, 26 July, Wednesday

    Time Temperature Precipitation Wind Pressure Humidity
    00:00 +27°C° 0 mm 3 mps 666 mmHg 34%
    01:00 +27°C° 0 mm 3 mps 665 mmHg 37%
    02:00 +26°C° 0 mm 3 mps 665 mmHg 40%
    03:00 +25°C° 0 mm 3 mps 665 mmHg 43%
    04:00 +25°C° 0 mm 3 mps 665 mmHg 44%
    05:00 +25°C° 0 mm 3 mps 665 mmHg 44%
    06:00 +25°C° 0 mm 3 mps 665 mmHg 44%
    07:00 +26°C° 0 mm 3 mps 666 mmHg 38%
    08:00 +27°C° 0 mm 2 mps 666 mmHg 32%
    09:00 +29°C° 0 mm 2 mps 667 mmHg 26%
    10:00 +30°C° 0 mm 3 mps 667 mmHg 22%
    11:00 +33°C° 0 mm 4 mps 667 mmHg 19%
    12:00 +34°C° 0 mm 4 mps 667 mmHg 16%
    13:00 +35°C° 0 mm 5 mps 667 mmHg 14%
    14:00 +35°C° 0 mm 6 mps 667 mmHg 13%
    15:00 +36°C° 0 mm 6 mps 667 mmHg 12%
    16:00 +36°C° 0 mm 6 mps 666 mmHg 12%
    17:00 +35°C° 0 mm 6 mps 666 mmHg 12%
    18:00 +35°C° 0 mm 6 mps 666 mmHg 12%
    19:00 +34°C° 0 mm 6 mps 667 mmHg 15%
    20:00 +32°C° 0 mm 5 mps 667 mmHg 19%
    21:00 +30°C° 0 mm 5 mps 667 mmHg 22%
    22:00 +29°C° 0 mm 4 mps 667 mmHg 26%
    23:00 +28°C° 0 mm 3 mps 667 mmHg 30%

    Day after tomorrow, 27 July, Thursday

    Time Temperature Precipitation Wind Pressure Humidity
    00:00 +27°C° 0 mm 3 mps 667 mmHg 34%
    01:00 +26°C° 0 mm 2 mps 666 mmHg 35%
    02:00 +26°C° 0 mm 2 mps 666 mmHg 37%
    03:00 +25°C° 0 mm 1 mps 666 mmHg 39%
    04:00 +25°C° 0 mm 1 mps 666 mmHg 38%
    05:00 +25°C° 0 mm 1 mps 667 mmHg 37%
    06:00 +25°C° 0 mm 1 mps 667 mmHg 37%
    07:00 +27°C° 0 mm 1 mps 667 mmHg 32%
    08:00 +28°C° 0 mm 1 mps 668 mmHg 27%
    09:00 +29°C° 0 mm 1 mps 668 mmHg 22%
    10:00 +31°C° 0 mm 1 mps 668 mmHg 20%
    11:00 +32°C° 0 mm 1 mps 668 mmHg 17%
    12:00 +34°C° 0 mm 2 mps 669 mmHg 15%
    13:00 +35°C° 0 mm 2 mps 668 mmHg 14%
    14:00 +36°C° 0 mm 3 mps 668 mmHg 13%
    15:00 +37°C° 0 mm 4 mps 668 mmHg 11%
    16:00 +37°C° 0 mm 4 mps 668 mmHg 12%
    17:00 +36°C° 0 mm 4 mps 668 mmHg 12%
    18:00 +36°C° 0 mm 4 mps 668 mmHg 13%
    19:00 +35°C° 0 mm 4 mps 668 mmHg 14%
    20:00 +34°C° 0 mm 3 mps 668 mmHg 16%
    21:00 +33°C° 0 mm 3 mps 668 mmHg 17%
    22:00 +31°C° 0 mm 3 mps 668 mmHg 20%
    23:00 +30°C° 0 mm 3 mps 668 mmHg 23%

    28 July, Friday

    Time Temperature Precipitation Wind Pressure Humidity
    00:00 +29°C° 0 mm 3 mps 668 mmHg 26%
    01:00 +29°C° 0 mm 3 mps 668 mmHg 29%
    02:00 +28°C° 0 mm 3 mps 667 mmHg 32%
    03:00 +27°C° 0 mm 2 mps 667 mmHg 34%
    04:00 +27°C° 0 mm 2 mps 667 mmHg 33%
    05:00 +28°C° 0 mm 2 mps 668 mmHg 33%
    06:00 +28°C° 0 mm 2 mps 668 mmHg 32%
    07:00 +29°C° 0 mm 3 mps 669 mmHg 29%
    08:00 +32°C° 0 mm 4 mps 669 mmHg 25%
    09:00 +34°C° 0 mm 5 mps 670 mmHg 22%
    10:00 +35°C° 0 mm 5 mps 670 mmHg 20%
    11:00 +36°C° 0 mm 5 mps 670 mmHg 19%
    12:00 +37°C° 0 mm 5 mps 670 mmHg 17%
    13:00 +39°C° 0 mm 5 mps 670 mmHg 15%
    14:00 +40°C° 0 mm 5 mps 669 mmHg 14%
    15:00 +41°C° 0 mm 5 mps 669 mmHg 12%
    16:00 +41°C° 0 mm 5 mps 669 mmHg 12%
    17:00 +41°C° 0 mm 5 mps 669 mmHg 11%
    18:00 +41°C° 0 mm 5 mps 669 mmHg 11%
    19:00 +39°C° 0 mm 5 mps 669 mmHg 13%
    20:00 +36°C° 0 mm 4 mps 669 mmHg 16%
    21:00 +35°C° 0 mm 4 mps 669 mmHg 18%
    22:00 +34°C° 0 mm 4 mps 669 mmHg 21%
    23:00 +33°C° 0 mm 4 mps 669 mmHg 23%

    29 July, Saturday

    Time Temperature Precipitation Wind Pressure Humidity
    00:00 +32°C° 0 mm 4 mps 668 mmHg 25%
    01:00 +30°C° 0 mm 4 mps 668 mmHg 25%
    02:00 +30°C° 0 mm 4 mps 668 mmHg 26%
    03:00 +29°C° 0 mm 4 mps 668 mmHg 27%
    04:00 +29°C° 0 mm 4 mps 668 mmHg 27%
    05:00 +29°C° 0 mm 4 mps 668 mmHg 27%
    06:00 +29°C° 0 mm 3 mps 669 mmHg 27%
    07:00 +32°C° 0 mm 4 mps 669 mmHg 24%
    08:00 +34°C° 0 mm 5 mps 670 mmHg 20%
    09:00 +36°C° 0 mm 5 mps 670 mmHg 17%
    10:00 +37°C° 0 mm 5 mps 670 mmHg 16%
    11:00 +38°C° 0 mm 4 mps 670 mmHg 14%
    12:00 +40°C° 0 mm 4 mps 670 mmHg 12%
    13:00 +41°C° 0 mm 4 mps 670 mmHg 11%
    14:00 +42°C° 0 mm 3 mps 669 mmHg 10%
    15:00 +42°C° 0 mm 3 mps 669 mmHg 9%
    16:00 +42°C° 0 mm 3 mps 669 mmHg 9%
    17:00 +40°C° 0 mm 3 mps 669 mmHg 9%
    18:00 +40°C° 0 mm 3 mps 669 mmHg 10%
    19:00 +40°C° 0 mm 4 mps 669 mmHg 11%
    20:00 +37°C° 0 mm 4 mps 669 mmHg 13%
    21:00 +36°C° 0 mm 4 mps 669 mmHg 15%
    22:00 +35°C° 0 mm 5 mps 669 mmHg 16%
    23:00 +35°C° 0 mm 5 mps 668 mmHg 17%

    30 July, Sunday

    Time Temperature Precipitation Wind Pressure Humidity
    00:00 +34°C° 0 mm 6 mps 668 mmHg 19%
    01:00 +33°C° 0 mm 5 mps 668 mmHg 19%
    02:00 +33°C° 0 mm 5 mps 668 mmHg 20%
    03:00 +32°C° 0 mm 4 mps 668 mmHg 21%
    04:00 +32°C° 0 mm 4 mps 668 mmHg 22%
    05:00 +30°C° 0 mm 4 mps 668 mmHg 22%
    06:00 +30°C° 0 mm 4 mps 668 mmHg 23%
    07:00 +33°C° 0 mm 5 mps 669 mmHg 21%
    08:00 +34°C° 0 mm 7 mps 669 mmHg 19%
    09:00 +37°C° 0 mm 8 mps 669 mmHg 16%
    10:00 +38°C° 0 mm 7 mps 669 mmHg 15%
    11:00 +40°C° 0 mm 7 mps 669 mmHg 13%
    12:00 +41°C° 0 mm 6 mps 669 mmHg 12%
    13:00 +42°C° 0 mm 6 mps 669 mmHg 11%
    14:00 +42°C° 0 mm 5 mps 669 mmHg 11%
    15:00 +43°C° 0 mm 5 mps 668 mmHg 10%
    16:00 +42°C° 0 mm 5 mps 668 mmHg 11%
    17:00 +41°C° 0 mm 6 mps 668 mmHg 12%
    18:00 +40°C° 0 mm 6 mps 668 mmHg 13%
    19:00 +38°C° 0.1 mm 4 mps 668 mmHg 15%
    20:00 +36°C° 0.1 mm 3 mps 668 mmHg 17%
    21:00 +34°C° 0.1 mm 1 mps 668 mmHg 19%
    22:00 +33°C° 0 mm 1 mps 668 mmHg 20%
    23:00 +32°C° 0 mm 1 mps 668 mmHg 21%
    Show more